Regional Weather Roundup
Issued by NWS

Home | Current Version | Previous Version | Graphics & Text | Print | Product List | Glossary On
Versions: 1 2 3 4 5 6 7 8 9 10 11 12 13 14 15 16 17 18 19 20 21 22 23 24 25 26 27 28 29 30 31 32 33 34 35 36 37 38 39 40 41 42 43 44 45 46 47 48 49 50
000
ASUS43 KLSX 220257
RWRMO

WEATHER SUMMARY FOR MISSOURI
NATIONAL WEATHER SERVICE SPRINGFIELD MO
900 PM CST SUN JAN 21 2018

NOTE: "FAIR" INDICATES FEW OR NO CLOUDS BELOW 12,000 FEET WITH NO
       SIGNIFICANT WEATHER AND/OR OBSTRUCTIONS TO VISIBILITY.
       CURRENT SKY AND/OR WEATHER CONDITIONS ARE NOT AVAILABLE FOR
       CHILLICOTHE AND FARMINGTON.

MOZ001>031-035>038-043-044-053-054-220400-
...NORTHERN AND WESTERN MISSOURI...

CITY           SKY/WX    TMP DP  RH WIND       PRES   REMARKS
KANSAS CTY INT LGT RAIN  56  51  84 S12       29.57F
LEE`S SUMMIT   CLOUDY    59  54  83 S13       29.60F
ST JOSEPH      TSTM      52  51  97 E12G17    29.58F FOG
CHILLICOTHE      N/A     53  50  89 SE6       29.62F

$$
MOZ066>068-077>081-088>096-101>105-220400-
...SOUTHWEST MISSOURI...

CITY           SKY/WX    TMP DP  RH WIND       PRES   REMARKS
SPRINGFIELD    RAIN      59  58  96 S14G23    29.69F FOG
JOPLIN         LGT RAIN  60  58  92 S14G24    29.61F
BRANSON        TSTM      59  59 100 SE8       29.72F FOG

$$
MOZ032>034-039>042-045>050-055>058-069>072-220400-
...CENTRAL MISSOURI...

CITY           SKY/WX    TMP DP  RH WIND       PRES   REMARKS
COLUMBIA       RAIN      59  57  93 SW5       29.73S FOG
JEFFERSON CITY LGT RAIN  60  55  83 SE8       29.72F
ROLLA          CLOUDY    58  55  90 S13       29.75F
SEDALIA        RAIN      60  58  92 S18       29.66F
WARRENSBURG    CLOUDY    59  54  82 SE14      29.63S

$$
MOZ051-052-059>065-220400-
...EAST CENTRAL MISSOURI...

CITY           SKY/WX    TMP DP  RH WIND       PRES   REMARKS
ST LOUIS INTL  CLOUDY    57  56  96 S16G23    29.82F

$$
MOZ072>076-082>087-097>100-106>115-220400-
...SOUTH CENTRAL AND SOUTHEAST MISSOURI...

CITY           SKY/WX    TMP DP  RH WIND       PRES   REMARKS
CAPE GIRARDEAU CLOUDY    53  51  93 SE6       29.89F
POPLAR BLUFF   MOCLDY    58  55  90 S7        29.87F
WEST PLAINS    CLOUDY    59  55  87 S14G23    29.80F

$$


USA.gov is the U.S. government's official web portal to all federal, state and local government web resources and services.